RASCOM-QAF 1R

Last updated on Jan. 19, 2020, 4:37 a.m. UTC

1 36831U 10037B   20018.40951943  .00000014  00000-0  00000-0 0  9993
2 36831   0.0247  89.1874 0006158 206.3360 332.0593  1.00272581 34809
UTC
Height (km)
Latitude
Longitude
Inclination
Orbital Period
UTC large
Height (km)
Speed (km/s)
/
Latitude / Longitude
Inclination (degrees)
Orbital Period (minutes)
Azimuth
Elevation
Range (km)
Doppler Factor
iOS Compass Heading
iOS Angle

Next 30 passes for location: Hong Kong

Rise time Rise Azimuth (degrees) Set time Set Azimuth (degrees) Duration Max altitude (degrees)

No matching passes for this satellites